Year,Month,Day,Hour,Minute,Value (Times are PST for temperature in C)
2020,06,08,00,00,9.70
2020,06,08,00,01,9.70
2020,06,08,00,02,9.70
2020,06,08,00,03,9.70
2020,06,08,00,04,9.70
2020,06,08,00,05,9.70
2020,06,08,00,06,9.70
2020,06,08,00,07,9.70
2020,06,08,00,08,9.70
2020,06,08,00,09,9.70
2020,06,08,00,10,9.70
2020,06,08,00,11,9.70
2020,06,08,00,12,9.70
2020,06,08,00,13,9.80
2020,06,08,00,14,9.80
2020,06,08,00,15,9.80
2020,06,08,00,16,9.80
2020,06,08,00,17,9.80
2020,06,08,00,18,9.80
2020,06,08,00,19,9.80
2020,06,08,00,20,9.80
2020,06,08,00,21,9.80
2020,06,08,00,22,9.90
2020,06,08,00,23,9.90
2020,06,08,00,24,9.90
2020,06,08,00,25,9.90
2020,06,08,00,26,9.90
2020,06,08,00,27,9.90
2020,06,08,00,28,9.90
2020,06,08,00,29,9.90
2020,06,08,00,30,9.90
2020,06,08,00,31,10.00
2020,06,08,00,32,10.20
2020,06,08,00,33,10.20
2020,06,08,00,34,10.20
2020,06,08,00,35,10.20
2020,06,08,00,36,10.20
2020,06,08,00,37,10.20
2020,06,08,00,38,10.20
2020,06,08,00,39,10.20
2020,06,08,00,40,10.30
2020,06,08,00,41,10.30
2020,06,08,00,42,10.30
2020,06,08,00,43,10.30
2020,06,08,00,44,10.30
2020,06,08,00,45,10.40
2020,06,08,00,46,10.40
2020,06,08,00,47,10.50
2020,06,08,00,48,10.60
2020,06,08,00,49,10.60
2020,06,08,00,50,10.60
2020,06,08,00,51,10.70
2020,06,08,00,52,10.70
2020,06,08,00,53,10.70
2020,06,08,00,54,10.70
2020,06,08,00,55,10.70
2020,06,08,00,56,10.70
2020,06,08,00,57,10.70
2020,06,08,00,58,10.70
2020,06,08,00,59,10.60
2020,06,08,01,00,10.60
2020,06,08,01,01,10.60
2020,06,08,01,02,10.60
2020,06,08,01,03,10.60
2020,06,08,01,04,10.60
2020,06,08,01,05,10.60
2020,06,08,01,06,10.60
2020,06,08,01,07,10.60
2020,06,08,01,08,10.60
2020,06,08,01,09,10.60
2020,06,08,01,10,10.60
2020,06,08,01,11,10.60
2020,06,08,01,12,10.60
2020,06,08,01,13,10.70
2020,06,08,01,14,10.70
2020,06,08,01,15,10.70
2020,06,08,01,16,10.80
2020,06,08,01,17,10.80
2020,06,08,01,18,10.90
2020,06,08,01,19,10.90
2020,06,08,01,20,10.90
2020,06,08,01,21,10.90
2020,06,08,01,22,11.00
2020,06,08,01,23,11.00
2020,06,08,01,24,11.00
2020,06,08,01,25,11.00
2020,06,08,01,26,11.10
2020,06,08,01,27,11.10
2020,06,08,01,28,11.10
2020,06,08,01,29,11.10
2020,06,08,01,30,11.20
2020,06,08,01,31,11.20
2020,06,08,01,32,11.20
2020,06,08,01,33,11.20
2020,06,08,01,34,11.20
2020,06,08,01,35,11.20
2020,06,08,01,36,11.20
2020,06,08,01,37,11.30
2020,06,08,01,38,11.30
2020,06,08,01,39,11.30
2020,06,08,01,40,11.30
2020,06,08,01,41,11.30
2020,06,08,01,42,11.30
2020,06,08,01,43,11.30
2020,06,08,01,44,11.30
2020,06,08,01,45,11.30
2020,06,08,01,46,11.30
2020,06,08,01,47,11.30
2020,06,08,01,48,11.30
2020,06,08,01,49,11.20
2020,06,08,01,50,11.20
2020,06,08,01,51,11.20
2020,06,08,01,52,11.30
2020,06,08,01,53,11.30
2020,06,08,01,54,11.30
2020,06,08,01,55,11.30
2020,06,08,01,56,11.30
2020,06,08,01,57,11.20
2020,06,08,01,58,11.20
2020,06,08,01,59,11.20
2020,06,08,02,00,11.20
2020,06,08,02,01,11.20
2020,06,08,02,02,11.20
2020,06,08,02,03,11.20
2020,06,08,02,04,11.10
2020,06,08,02,05,11.10
2020,06,08,02,06,11.10
2020,06,08,02,07,11.10
2020,06,08,02,08,11.10
2020,06,08,02,09,11.00
2020,06,08,02,10,11.00
2020,06,08,02,11,11.00
2020,06,08,02,12,10.90
2020,06,08,02,13,10.90
2020,06,08,02,14,10.90
2020,06,08,02,15,10.90
2020,06,08,02,16,10.90
2020,06,08,02,17,10.90
2020,06,08,02,18,10.90
2020,06,08,02,19,10.90
2020,06,08,02,20,10.90
2020,06,08,02,21,10.90
2020,06,08,02,22,11.00
2020,06,08,02,23,11.00
2020,06,08,02,24,11.00
2020,06,08,02,25,11.00
2020,06,08,02,26,11.10
2020,06,08,02,27,11.10
2020,06,08,02,28,11.20
2020,06,08,02,29,11.20
2020,06,08,02,30,11.20
2020,06,08,02,31,11.30
2020,06,08,02,32,11.30
2020,06,08,02,33,11.40
2020,06,08,02,34,11.40
2020,06,08,02,35,11.40
2020,06,08,02,36,11.50
2020,06,08,02,37,11.50
2020,06,08,02,38,11.50
2020,06,08,02,39,11.50
2020,06,08,02,40,11.50
2020,06,08,02,41,11.50
2020,06,08,02,42,11.50
2020,06,08,02,43,11.60
2020,06,08,02,44,11.60
2020,06,08,02,45,11.60
2020,06,08,02,46,11.60
2020,06,08,02,47,11.60
2020,06,08,02,48,11.60
2020,06,08,02,49,11.60
2020,06,08,02,50,11.60
2020,06,08,02,51,11.60
2020,06,08,02,52,11.60
2020,06,08,02,53,11.60
2020,06,08,02,54,11.70
2020,06,08,02,55,11.70
2020,06,08,02,56,11.70
2020,06,08,02,57,11.70
2020,06,08,02,58,11.70
2020,06,08,02,59,11.70
2020,06,08,03,00,11.60
2020,06,08,03,01,11.70
2020,06,08,03,02,11.70
2020,06,08,03,03,11.70
2020,06,08,03,04,11.70
2020,06,08,03,05,11.70
2020,06,08,03,06,11.70
2020,06,08,03,07,11.70
2020,06,08,03,08,11.70
2020,06,08,03,09,11.70
2020,06,08,03,10,11.70
2020,06,08,03,11,11.70
2020,06,08,03,12,11.70
2020,06,08,03,13,11.70
2020,06,08,03,14,11.70
2020,06,08,03,15,11.70
2020,06,08,03,16,11.70
2020,06,08,03,17,11.70
2020,06,08,03,18,11.70
2020,06,08,03,19,11.70
2020,06,08,03,20,11.70
2020,06,08,03,21,11.70
2020,06,08,03,22,11.70
2020,06,08,03,23,11.70
2020,06,08,03,24,11.70
2020,06,08,03,25,11.70
2020,06,08,03,26,11.70
2020,06,08,03,27,11.70
2020,06,08,03,28,11.70
2020,06,08,03,29,11.70
2020,06,08,03,30,11.70
2020,06,08,03,31,11.70
2020,06,08,03,32,11.70
2020,06,08,03,33,11.80
2020,06,08,03,34,11.80
2020,06,08,03,35,11.80
2020,06,08,03,36,11.80
2020,06,08,03,37,11.80
2020,06,08,03,38,11.80
2020,06,08,03,39,11.80
2020,06,08,03,40,11.80
2020,06,08,03,41,11.80
2020,06,08,03,42,11.80
2020,06,08,03,43,11.80
2020,06,08,03,44,11.80
2020,06,08,03,45,11.80
2020,06,08,03,46,11.80
2020,06,08,03,47,11.80
2020,06,08,03,48,11.80
2020,06,08,03,49,11.80
2020,06,08,03,50,11.80
2020,06,08,03,51,11.80
2020,06,08,03,52,11.80
2020,06,08,03,53,11.70
2020,06,08,03,54,11.80
2020,06,08,03,55,11.80
2020,06,08,03,56,11.80
2020,06,08,03,57,11.80
2020,06,08,03,58,11.70
2020,06,08,03,59,11.80
2020,06,08,04,00,11.70
2020,06,08,04,01,11.70
2020,06,08,04,02,11.70
2020,06,08,04,03,11.70
2020,06,08,04,04,11.80
2020,06,08,04,05,11.80
2020,06,08,04,06,11.80
2020,06,08,04,07,11.80
2020,06,08,04,08,11.80
2020,06,08,04,09,11.80
2020,06,08,04,10,11.80
2020,06,08,04,11,11.80
2020,06,08,04,12,11.80
2020,06,08,04,13,11.80
2020,06,08,04,14,11.80
2020,06,08,04,15,11.80
2020,06,08,04,16,11.70
2020,06,08,04,17,11.70
2020,06,08,04,18,11.70
2020,06,08,04,19,11.70
2020,06,08,04,20,11.70
2020,06,08,04,21,11.70
2020,06,08,04,22,11.70
2020,06,08,04,23,11.70
2020,06,08,04,24,11.70
2020,06,08,04,25,11.70
2020,06,08,04,26,11.70
2020,06,08,04,27,11.70
2020,06,08,04,28,11.70
2020,06,08,04,29,11.70
2020,06,08,04,30,11.70
2020,06,08,04,31,11.70
2020,06,08,04,32,11.70
2020,06,08,04,33,11.70
2020,06,08,04,34,11.70
2020,06,08,04,35,11.70
2020,06,08,04,36,11.70
2020,06,08,04,37,11.70
2020,06,08,04,38,11.60
2020,06,08,04,39,11.60
2020,06,08,04,40,11.60
2020,06,08,04,41,11.60
2020,06,08,04,42,11.60
2020,06,08,04,43,11.60
2020,06,08,04,44,11.50
2020,06,08,04,45,11.50
2020,06,08,04,46,11.50
2020,06,08,04,47,11.50
2020,06,08,04,48,11.40
2020,06,08,04,49,11.40
2020,06,08,04,50,11.40
2020,06,08,04,51,11.40
2020,06,08,04,52,11.40
2020,06,08,04,53,11.40
2020,06,08,04,54,11.40
2020,06,08,04,55,11.30
2020,06,08,04,56,11.30
2020,06,08,04,57,11.30
2020,06,08,04,58,11.30
2020,06,08,04,59,11.30
2020,06,08,05,00,11.30
2020,06,08,05,01,11.30
2020,06,08,05,02,11.30
2020,06,08,05,03,11.30
2020,06,08,05,04,11.30
2020,06,08,05,05,11.30
2020,06,08,05,06,11.30
2020,06,08,05,07,11.30
2020,06,08,05,08,11.30
2020,06,08,05,09,11.30
2020,06,08,05,10,11.20
2020,06,08,05,11,11.20
2020,06,08,05,12,11.20
2020,06,08,05,13,11.20
2020,06,08,05,14,11.20
2020,06,08,05,15,11.20
2020,06,08,05,16,11.20
2020,06,08,05,17,11.20
2020,06,08,05,18,11.20
2020,06,08,05,19,11.20
2020,06,08,05,20,11.20
2020,06,08,05,21,11.20
2020,06,08,05,22,11.20
2020,06,08,05,23,11.20
2020,06,08,05,24,11.20
2020,06,08,05,25,11.20
2020,06,08,05,26,11.20
2020,06,08,05,27,11.20
2020,06,08,05,28,11.20
2020,06,08,05,29,11.20
2020,06,08,05,30,11.20
2020,06,08,05,31,11.20
2020,06,08,05,32,11.20
2020,06,08,05,33,11.20
2020,06,08,05,34,11.20
2020,06,08,05,35,11.20
2020,06,08,05,36,11.20
2020,06,08,05,37,11.20
2020,06,08,05,38,11.20
2020,06,08,05,39,11.20
2020,06,08,05,40,11.20
2020,06,08,05,41,11.20
2020,06,08,05,42,11.20
2020,06,08,05,43,11.20
2020,06,08,05,44,11.20
2020,06,08,05,45,11.20
2020,06,08,05,46,11.20
2020,06,08,05,47,11.20
2020,06,08,05,48,11.20
2020,06,08,05,49,11.20
2020,06,08,05,50,11.20
2020,06,08,05,51,11.20
2020,06,08,05,52,11.20
2020,06,08,05,53,11.20
2020,06,08,05,54,11.20
2020,06,08,05,55,11.20
2020,06,08,05,56,11.20
2020,06,08,05,57,11.20
2020,06,08,05,58,11.20
2020,06,08,05,59,11.20
2020,06,08,06,00,11.20
2020,06,08,06,01,11.20
2020,06,08,06,02,11.20
2020,06,08,06,03,11.20
2020,06,08,06,04,11.20
2020,06,08,06,05,11.20
2020,06,08,06,06,11.20
2020,06,08,06,07,11.20
2020,06,08,06,08,11.20
2020,06,08,06,09,11.20
2020,06,08,06,10,11.20
2020,06,08,06,11,11.20
2020,06,08,06,12,11.20
2020,06,08,06,13,11.20
2020,06,08,06,14,11.20
2020,06,08,06,15,11.20
2020,06,08,06,16,11.20
2020,06,08,06,17,11.20
2020,06,08,06,18,11.20
2020,06,08,06,19,11.20
2020,06,08,06,20,11.20
2020,06,08,06,21,11.20
2020,06,08,06,22,11.20
2020,06,08,06,23,11.20
2020,06,08,06,24,11.20
2020,06,08,06,25,11.20
2020,06,08,06,26,11.20
2020,06,08,06,27,11.20
2020,06,08,06,28,11.30
2020,06,08,06,29,11.30
2020,06,08,06,30,11.30
2020,06,08,06,31,11.30
2020,06,08,06,32,11.30
2020,06,08,06,33,11.30
2020,06,08,06,34,11.30
2020,06,08,06,35,11.30
2020,06,08,06,36,11.30
2020,06,08,06,37,11.30
2020,06,08,06,38,11.40
2020,06,08,06,39,11.40
2020,06,08,06,40,11.40
2020,06,08,06,41,11.40
2020,06,08,06,42,11.40
2020,06,08,06,43,11.40
2020,06,08,06,44,11.40
2020,06,08,06,45,11.40
2020,06,08,06,46,11.40
2020,06,08,06,47,11.40
2020,06,08,06,48,11.40
2020,06,08,06,49,11.40
2020,06,08,06,50,11.40
2020,06,08,06,51,11.40
2020,06,08,06,52,11.40
2020,06,08,06,53,11.40
2020,06,08,06,54,11.50
2020,06,08,06,55,11.50
2020,06,08,06,56,11.50
2020,06,08,06,57,11.50
2020,06,08,06,58,11.50
2020,06,08,06,59,11.50
2020,06,08,07,00,11.50
2020,06,08,07,01,11.50
2020,06,08,07,02,11.60
2020,06,08,07,03,11.60
2020,06,08,07,04,11.60
2020,06,08,07,05,11.60
2020,06,08,07,06,11.60
2020,06,08,07,07,11.60
2020,06,08,07,08,11.60
2020,06,08,07,09,11.60
2020,06,08,07,10,11.60
2020,06,08,07,11,11.70
2020,06,08,07,12,11.70
2020,06,08,07,13,11.70
2020,06,08,07,14,11.70
2020,06,08,07,15,11.70
2020,06,08,07,16,11.70
2020,06,08,07,17,11.70
2020,06,08,07,18,11.70
2020,06,08,07,19,11.70
2020,06,08,07,20,11.70
2020,06,08,07,21,11.80
2020,06,08,07,22,11.80
2020,06,08,07,23,11.80
2020,06,08,07,24,11.80
2020,06,08,07,25,11.80
2020,06,08,07,26,11.80
2020,06,08,07,27,11.80
2020,06,08,07,28,11.80
2020,06,08,07,29,11.80
2020,06,08,07,30,11.80
2020,06,08,07,31,11.80
2020,06,08,07,32,11.80
2020,06,08,07,33,11.80
2020,06,08,07,34,11.80
2020,06,08,07,35,11.80
2020,06,08,07,36,11.80
2020,06,08,07,37,11.80
2020,06,08,07,38,11.80
2020,06,08,07,39,11.80
2020,06,08,07,40,11.80
2020,06,08,07,41,11.80
2020,06,08,07,42,11.80
2020,06,08,07,43,11.80
2020,06,08,07,44,11.90
2020,06,08,07,45,11.90
2020,06,08,07,46,11.90
2020,06,08,07,47,11.90
2020,06,08,07,48,11.90
2020,06,08,07,49,11.90
2020,06,08,07,50,11.90
2020,06,08,07,51,12.00
2020,06,08,07,52,12.00
2020,06,08,07,53,12.00
2020,06,08,07,54,12.00
2020,06,08,07,55,12.00
2020,06,08,07,56,12.10
2020,06,08,07,57,12.10
2020,06,08,07,58,12.10
2020,06,08,07,59,12.10
2020,06,08,08,00,12.10
2020,06,08,08,01,12.20
2020,06,08,08,02,12.20
2020,06,08,08,03,12.20
2020,06,08,08,04,12.20
2020,06,08,08,05,12.20
2020,06,08,08,06,12.20
2020,06,08,08,07,12.20
2020,06,08,08,08,12.30
2020,06,08,08,09,12.40
2020,06,08,08,10,12.40
2020,06,08,08,11,12.40
2020,06,08,08,12,12.50
2020,06,08,08,13,12.50
2020,06,08,08,14,12.60
2020,06,08,08,15,12.60
2020,06,08,08,16,12.60
2020,06,08,08,17,12.70
2020,06,08,08,18,12.70
2020,06,08,08,19,12.70
2020,06,08,08,20,12.70
2020,06,08,08,21,12.70
2020,06,08,08,22,12.70
2020,06,08,08,23,12.70
2020,06,08,08,24,12.80
2020,06,08,08,25,12.80
2020,06,08,08,26,12.80
2020,06,08,08,27,12.80
2020,06,08,08,28,12.80
2020,06,08,08,29,12.80
2020,06,08,08,30,12.80
2020,06,08,08,31,12.80
2020,06,08,08,32,12.80
2020,06,08,08,33,12.80
2020,06,08,08,34,12.90
2020,06,08,08,35,12.90
2020,06,08,08,36,12.90
2020,06,08,08,37,13.00
2020,06,08,08,38,13.10
2020,06,08,08,39,13.10
2020,06,08,08,40,13.20
2020,06,08,08,41,13.20
2020,06,08,08,42,13.20
2020,06,08,08,43,13.20
2020,06,08,08,44,13.20
2020,06,08,08,45,13.20
2020,06,08,08,46,13.20
2020,06,08,08,47,13.20
2020,06,08,08,48,13.20
2020,06,08,08,49,13.20
2020,06,08,08,50,13.20
2020,06,08,08,51,13.20
2020,06,08,08,52,13.20
2020,06,08,08,53,13.20
2020,06,08,08,54,13.20
2020,06,08,08,55,13.20
2020,06,08,08,56,13.20
2020,06,08,08,57,13.10
2020,06,08,08,58,13.10
2020,06,08,08,59,13.10
2020,06,08,09,00,13.10
2020,06,08,09,01,13.10
2020,06,08,09,02,13.10
2020,06,08,09,03,13.10
2020,06,08,09,04,13.10
2020,06,08,09,05,13.10
2020,06,08,09,06,13.00
2020,06,08,09,07,13.00
2020,06,08,09,08,13.10
2020,06,08,09,09,13.10
2020,06,08,09,10,13.20
2020,06,08,09,11,13.20
2020,06,08,09,12,13.30
2020,06,08,09,13,13.30
2020,06,08,09,14,13.40
2020,06,08,09,15,13.40
2020,06,08,09,16,13.50
2020,06,08,09,17,13.50
2020,06,08,09,18,13.60
2020,06,08,09,19,13.60
2020,06,08,09,20,13.60
2020,06,08,09,21,13.60
2020,06,08,09,22,13.50
2020,06,08,09,23,13.40
2020,06,08,09,24,13.50
2020,06,08,09,25,13.50
2020,06,08,09,26,13.60
2020,06,08,09,27,13.60
2020,06,08,09,28,13.60
2020,06,08,09,29,13.60
2020,06,08,09,30,13.60
2020,06,08,09,31,13.60
2020,06,08,09,32,13.60
2020,06,08,09,33,13.70
2020,06,08,09,34,13.70
2020,06,08,09,35,13.70
2020,06,08,09,36,13.80
2020,06,08,09,37,13.80
2020,06,08,09,38,13.90
2020,06,08,09,39,13.90
2020,06,08,09,40,13.90
2020,06,08,09,41,13.90
2020,06,08,09,42,14.00
2020,06,08,09,43,14.00
2020,06,08,09,44,14.00
2020,06,08,09,45,14.10
2020,06,08,09,46,14.10
2020,06,08,09,47,14.00
2020,06,08,09,48,14.00
2020,06,08,09,49,14.10
2020,06,08,09,50,14.10
2020,06,08,09,51,14.20
2020,06,08,09,52,14.20
2020,06,08,09,53,14.20
2020,06,08,09,54,14.30
2020,06,08,09,55,14.40
2020,06,08,09,56,14.40
2020,06,08,09,57,14.40
2020,06,08,09,58,14.40
2020,06,08,09,59,14.30
2020,06,08,10,00,14.30
2020,06,08,10,01,14.40
2020,06,08,10,02,14.40
2020,06,08,10,03,14.30
2020,06,08,10,04,14.30
2020,06,08,10,05,14.30
2020,06,08,10,06,14.30
2020,06,08,10,07,14.30
2020,06,08,10,08,14.40
2020,06,08,10,09,14.40
2020,06,08,10,10,14.40
2020,06,08,10,11,14.30
2020,06,08,10,12,14.40
2020,06,08,10,13,14.40
2020,06,08,10,14,14.30
2020,06,08,10,15,14.30
2020,06,08,10,16,14.40
2020,06,08,10,17,14.40
2020,06,08,10,18,14.30
2020,06,08,10,19,14.30
2020,06,08,10,20,14.30
2020,06,08,10,21,14.30
2020,06,08,10,22,14.30
2020,06,08,10,23,14.40
2020,06,08,10,24,14.40
2020,06,08,10,25,14.30
2020,06,08,10,26,14.30
2020,06,08,10,27,14.30
2020,06,08,10,28,14.20
2020,06,08,10,29,14.20
2020,06,08,10,30,14.20
2020,06,08,10,31,14.10
2020,06,08,10,32,14.10
2020,06,08,10,33,14.10
2020,06,08,10,34,14.10
2020,06,08,10,35,14.00
2020,06,08,10,36,14.00
2020,06,08,10,37,13.90
2020,06,08,10,38,13.90
2020,06,08,10,39,13.90
2020,06,08,10,40,13.90
2020,06,08,10,41,13.90
2020,06,08,10,42,14.00
2020,06,08,10,43,14.10
2020,06,08,10,44,14.10
2020,06,08,10,45,14.10
2020,06,08,10,46,14.10
2020,06,08,10,47,14.20
2020,06,08,10,48,14.20
2020,06,08,10,49,14.30
2020,06,08,10,50,14.30
2020,06,08,10,51,14.30
2020,06,08,10,52,14.20
2020,06,08,10,53,14.20
2020,06,08,10,54,14.10
2020,06,08,10,55,14.20
2020,06,08,10,56,14.20
2020,06,08,10,57,14.20
2020,06,08,10,58,14.20
2020,06,08,10,59,14.20
2020,06,08,11,00,14.30
2020,06,08,11,01,14.30
2020,06,08,11,02,14.40
2020,06,08,11,03,14.40
2020,06,08,11,04,14.40
2020,06,08,11,05,14.40
2020,06,08,11,06,14.50
2020,06,08,11,07,14.50
2020,06,08,11,08,14.40
2020,06,08,11,09,14.40
2020,06,08,11,10,14.40
2020,06,08,11,11,14.40
2020,06,08,11,12,14.40
2020,06,08,11,13,14.40
2020,06,08,11,14,14.30
2020,06,08,11,15,14.30
2020,06,08,11,16,14.30
2020,06,08,11,17,14.20
2020,06,08,11,18,14.30
2020,06,08,11,19,14.20
2020,06,08,11,20,14.20
2020,06,08,11,21,14.20
2020,06,08,11,22,14.20
2020,06,08,11,23,14.10
2020,06,08,11,24,14.10
2020,06,08,11,25,14.10
2020,06,08,11,26,14.10
2020,06,08,11,27,14.20
2020,06,08,11,28,14.20
2020,06,08,11,29,14.40
2020,06,08,11,30,14.40
2020,06,08,11,31,14.40
2020,06,08,11,32,14.40
2020,06,08,11,33,14.40
2020,06,08,11,34,14.40
2020,06,08,11,35,14.50
2020,06,08,11,36,14.60
2020,06,08,11,37,14.70
2020,06,08,11,38,14.70
2020,06,08,11,39,14.70
2020,06,08,11,40,14.70
2020,06,08,11,41,14.70
2020,06,08,11,42,14.70
2020,06,08,11,43,14.70
2020,06,08,11,44,14.70
2020,06,08,11,45,14.70
2020,06,08,11,46,14.70
2020,06,08,11,47,14.70
2020,06,08,11,48,14.70
2020,06,08,14,55,14.90
2020,06,08,14,56,14.90
2020,06,08,14,57,14.90
2020,06,08,14,58,14.90
2020,06,08,14,59,15.00
2020,06,08,15,00,15.00
2020,06,08,15,01,15.10
2020,06,08,15,02,15.10
2020,06,08,15,03,15.10
2020,06,08,15,04,15.10
2020,06,08,15,05,15.10
2020,06,08,15,06,15.10
2020,06,08,15,07,15.10
2020,06,08,15,08,15.10
2020,06,08,15,09,15.10
2020,06,08,15,10,15.20
2020,06,08,15,11,15.20
2020,06,08,15,12,15.20
2020,06,08,15,13,15.20
2020,06,08,15,14,15.20
2020,06,08,15,15,15.20
2020,06,08,15,16,15.20
2020,06,08,15,17,15.20
2020,06,08,15,18,15.30
2020,06,08,15,19,15.30
2020,06,08,15,20,15.30
2020,06,08,15,21,15.30
2020,06,08,15,22,15.20
2020,06,08,15,23,15.20
2020,06,08,15,24,15.20
2020,06,08,15,25,15.20
2020,06,08,15,26,15.30
2020,06,08,15,27,15.40
2020,06,08,15,28,15.50
2020,06,08,15,29,15.50
2020,06,08,15,30,15.50
2020,06,08,15,31,15.50
2020,06,08,15,32,15.50
2020,06,08,15,33,15.50
2020,06,08,15,34,15.50
2020,06,08,15,35,15.50
2020,06,08,15,36,15.50
2020,06,08,15,37,15.50
2020,06,08,15,38,15.60
2020,06,08,15,39,15.60
2020,06,08,15,40,15.60
2020,06,08,15,41,15.60
2020,06,08,15,42,15.50
2020,06,08,15,43,15.50
2020,06,08,15,44,15.40
2020,06,08,15,45,15.40
2020,06,08,15,46,15.50
2020,06,08,15,47,15.50
2020,06,08,15,48,15.60
2020,06,08,15,49,15.60
2020,06,08,15,50,15.70
2020,06,08,15,51,15.70
2020,06,08,15,52,15.80
2020,06,08,15,53,15.80
2020,06,08,15,54,15.70
2020,06,08,15,55,15.80
2020,06,08,15,56,15.80
2020,06,08,15,57,15.80
2020,06,08,15,58,15.90
2020,06,08,15,59,16.00
2020,06,08,16,00,16.00
2020,06,08,16,01,16.00
2020,06,08,16,02,15.90
2020,06,08,16,03,16.00
2020,06,08,16,04,16.00
2020,06,08,16,05,16.20
2020,06,08,16,06,16.20
2020,06,08,16,07,16.20
2020,06,08,16,08,16.20
2020,06,08,16,09,16.20
2020,06,08,16,10,16.20
2020,06,08,16,11,16.20
2020,06,08,16,12,16.20
2020,06,08,16,13,16.20
2020,06,08,16,14,16.20
2020,06,08,16,15,16.10
2020,06,08,16,16,16.10
2020,06,08,16,17,16.00
2020,06,08,16,18,15.90
2020,06,08,16,19,15.90
2020,06,08,16,20,16.00
2020,06,08,16,21,16.10
2020,06,08,16,22,16.20
2020,06,08,16,23,16.30
2020,06,08,16,24,16.30
2020,06,08,16,25,16.30
2020,06,08,16,26,16.30
2020,06,08,16,27,16.30
2020,06,08,16,28,16.30
2020,06,08,16,29,16.20
2020,06,08,16,30,16.20
2020,06,08,16,31,16.20
2020,06,08,16,32,16.30
2020,06,08,16,33,16.30
2020,06,08,16,34,16.20
2020,06,08,16,35,16.20
2020,06,08,16,36,16.30
2020,06,08,16,37,16.40
2020,06,08,16,38,16.40
2020,06,08,16,39,16.30
2020,06,08,16,40,16.20
2020,06,08,16,41,16.10
2020,06,08,16,42,16.10
2020,06,08,16,43,16.00
2020,06,08,16,44,15.90
2020,06,08,16,45,15.80
2020,06,08,16,46,15.80
2020,06,08,16,47,15.80
2020,06,08,16,48,15.80
2020,06,08,16,49,15.80
2020,06,08,16,50,15.80
2020,06,08,16,51,15.90
2020,06,08,16,52,15.90
2020,06,08,16,53,15.90
2020,06,08,16,54,15.90
2020,06,08,16,55,15.90
2020,06,08,16,56,15.80
2020,06,08,16,57,15.80
2020,06,08,16,58,15.80
2020,06,08,16,59,15.80
2020,06,08,17,00,15.80
2020,06,08,17,01,15.80
2020,06,08,17,02,15.70
2020,06,08,17,03,15.60
2020,06,08,17,04,15.50
2020,06,08,17,05,15.50
2020,06,08,17,06,15.40
2020,06,08,17,07,15.40
2020,06,08,17,08,15.40
2020,06,08,17,09,15.40
2020,06,08,17,10,15.40
2020,06,08,17,11,15.40
2020,06,08,17,12,15.40
2020,06,08,17,13,15.40
2020,06,08,17,14,15.40
2020,06,08,17,15,15.40
2020,06,08,17,16,15.40
2020,06,08,17,17,15.40
2020,06,08,17,18,15.40
2020,06,08,17,19,15.40
2020,06,08,17,20,15.40
2020,06,08,17,21,15.30
2020,06,08,17,22,15.30
2020,06,08,17,23,15.30
2020,06,08,17,24,15.30
2020,06,08,17,25,15.20
2020,06,08,17,26,15.20
2020,06,08,17,27,15.20
2020,06,08,17,28,15.20
2020,06,08,17,29,15.20
2020,06,08,17,30,15.10
2020,06,08,17,31,15.10
2020,06,08,17,32,15.00
2020,06,08,17,33,15.00
2020,06,08,17,34,14.90
2020,06,08,17,35,14.80
2020,06,08,17,36,14.80
2020,06,08,17,37,14.80
2020,06,08,17,38,14.80
2020,06,08,17,39,14.70
2020,06,08,17,40,14.70
2020,06,08,17,41,14.70
2020,06,08,17,42,14.70
2020,06,08,17,43,14.70
2020,06,08,17,44,14.70
2020,06,08,17,45,14.70
2020,06,08,17,46,14.70
2020,06,08,17,47,14.70
2020,06,08,17,48,14.60
2020,06,08,17,49,14.60
2020,06,08,17,50,14.60
2020,06,08,17,51,14.50
2020,06,08,17,52,14.50
2020,06,08,17,53,14.50
2020,06,08,17,54,14.40
2020,06,08,17,55,14.40
2020,06,08,17,56,14.40
2020,06,08,17,57,14.40
2020,06,08,17,58,14.30
2020,06,08,17,59,14.20
2020,06,08,18,00,14.20
2020,06,08,18,01,14.20
2020,06,08,18,02,14.20
2020,06,08,18,03,14.20
2020,06,08,18,04,14.20
2020,06,08,18,05,14.20
2020,06,08,18,06,14.20
2020,06,08,18,07,14.20
2020,06,08,18,08,14.30
2020,06,08,18,09,14.40
2020,06,08,18,10,14.40
2020,06,08,18,11,14.50
2020,06,08,18,12,14.50
2020,06,08,18,13,14.60
2020,06,08,18,14,14.70
2020,06,08,18,15,14.70
2020,06,08,18,16,14.70
2020,06,08,18,17,14.70
2020,06,08,18,18,14.70
2020,06,08,18,19,14.60
2020,06,08,18,20,14.60
2020,06,08,18,21,14.60
2020,06,08,18,22,14.60
2020,06,08,18,23,14.60
2020,06,08,18,24,14.50
2020,06,08,18,25,14.50
2020,06,08,18,26,14.40
2020,06,08,18,27,14.40
2020,06,08,18,28,14.40
2020,06,08,18,29,14.40
2020,06,08,18,30,14.30
2020,06,08,18,31,14.30
2020,06,08,18,32,14.30
2020,06,08,18,33,14.20
2020,06,08,18,34,14.10
2020,06,08,18,35,14.00
2020,06,08,18,36,14.00
2020,06,08,18,37,14.00
2020,06,08,18,38,14.00
2020,06,08,18,39,14.00
2020,06,08,18,40,14.00
2020,06,08,18,41,14.00
2020,06,08,18,42,14.00
2020,06,08,18,43,13.90
2020,06,08,18,44,13.90
2020,06,08,18,45,13.80
2020,06,08,18,46,13.80
2020,06,08,18,47,13.80
2020,06,08,18,48,13.80
2020,06,08,18,49,13.80
2020,06,08,18,50,13.80
2020,06,08,18,51,13.80
2020,06,08,18,52,13.70
2020,06,08,18,53,13.70
2020,06,08,18,54,13.70
2020,06,08,18,55,13.60
2020,06,08,18,56,13.60
2020,06,08,18,57,13.60
2020,06,08,18,58,13.60
2020,06,08,18,59,13.60
2020,06,08,19,00,13.60
2020,06,08,19,01,13.60
2020,06,08,19,02,13.60
2020,06,08,19,03,13.60
2020,06,08,19,04,13.60
2020,06,08,19,05,13.60
2020,06,08,19,06,13.60
2020,06,08,19,07,13.60
2020,06,08,19,08,13.60
2020,06,08,19,09,13.60
2020,06,08,19,10,13.60
2020,06,08,19,11,13.60
2020,06,08,19,12,13.60
2020,06,08,19,13,13.60
2020,06,08,19,14,13.50
2020,06,08,19,15,13.50
2020,06,08,19,16,13.50
2020,06,08,19,17,13.50
2020,06,08,19,18,13.50
2020,06,08,19,19,13.50
2020,06,08,19,20,13.50
2020,06,08,19,21,13.50
2020,06,08,19,22,13.50
2020,06,08,19,23,13.50
2020,06,08,19,24,13.50
2020,06,08,19,25,13.50
2020,06,08,19,26,13.50
2020,06,08,19,27,13.50
2020,06,08,19,28,13.50
2020,06,08,19,29,13.50
2020,06,08,19,30,13.50
2020,06,08,19,31,13.50
2020,06,08,19,32,13.50
2020,06,08,19,33,13.50
2020,06,08,19,34,13.50
2020,06,08,19,35,13.50
2020,06,08,19,36,13.50
2020,06,08,19,37,13.50
2020,06,08,19,38,13.50
2020,06,08,19,39,13.50
2020,06,08,19,40,13.50
2020,06,08,19,41,13.50
2020,06,08,19,42,13.50
2020,06,08,19,43,13.50
2020,06,08,19,44,13.50
2020,06,08,19,45,13.50
2020,06,08,19,46,13.50
2020,06,08,19,47,13.50
2020,06,08,19,48,13.50
2020,06,08,19,49,13.50
2020,06,08,19,50,13.50
2020,06,08,19,51,13.50
2020,06,08,19,52,13.50
2020,06,08,19,53,13.50
2020,06,08,19,54,13.50
2020,06,08,19,55,13.50
2020,06,08,19,56,13.50
2020,06,08,19,57,13.50
2020,06,08,19,58,13.60
2020,06,08,19,59,13.60
2020,06,08,20,00,13.60
2020,06,08,20,01,13.60
2020,06,08,20,02,13.60
2020,06,08,20,03,13.60
2020,06,08,20,04,13.60
2020,06,08,20,05,13.60
2020,06,08,20,06,13.60
2020,06,08,20,07,13.60
2020,06,08,20,08,13.60
2020,06,08,20,09,13.60
2020,06,08,20,10,13.60
2020,06,08,20,11,13.60
2020,06,08,20,12,13.60
2020,06,08,20,13,13.60
2020,06,08,20,14,13.60
2020,06,08,20,15,13.60
2020,06,08,20,16,13.60
2020,06,08,20,17,13.60
2020,06,08,20,18,13.60
2020,06,08,20,19,13.60
2020,06,08,20,20,13.60
2020,06,08,20,21,13.60
2020,06,08,20,22,13.60
2020,06,08,20,23,13.60
2020,06,08,20,24,13.60
2020,06,08,20,25,13.60
2020,06,08,20,26,13.60